Content
SEND FEEDBACK

Daily
Averages
Monthly
Summary
United States of America

MERIZO, GUAM


Home > North America > United States > Guam
Elevation: 3 meters     Latitude: 13 14N     Longitude: 144 39E

WEATHER
 
SELECT A DAY
Number of Records: 342,579;   Date Range: 1/1/95 - 9/18/14
 
SHARE

PRINT THIS DATA

[ ← Previous Day ]
WEATHER ALMANAC - 10 JANUARY, 2013
[ Next Day → ]
[ °F ]   °C
Weather ElementAverageHighLow
Temperature23.7 °C28.6 °C (2:55 pm)19.7 °C (8:55 am)
Dewpoint21.6 °C25 °C (2:57 pm)17.1 °C (2:55 am)
Humidity87.9 %94 % (5:30 am)74 % (2:45 pm)
Barometer1008.8 hPa1010.2 hPa (8:35 am)1007.1 hPa (2:55 pm)
Wind Speed22.9 km/h35.2 km/h (12:56 pm)
Wind Gust46.3 km/h (1:06 pm)
Weather ElementAverage
Visibility14.2 km
Wind DirectionENE (80.3 °)

Weather ElementTotal
Precipitation2.79 mm
Cooling Degree Days5.8 (Base 18.3)
Growing Degree Days14.2 (Base 10)
Averaged from 151 records on 10 January, 2013
WEATHER CONDITIONS BREAKOUT
WIND DIRECTION BREAKOUT
WEATHER BY HOUR - 10 JANUARY, 2013
[ °F ]   °C
Local TimeTemperatureDewpointHumidityBarometerVisibilityWind DirectionWind SpeedGust SpeedPrecipitationEventsConditions
12:22 AM24 °C20 °C78 %1009.1 hPa16.1 kmENE (70°)22.2 km/hScattered Clouds
12:39 AM23 °C20 °C83 %1009.1 hPa16.1 kmENE (70°)18.5 km/hMostly Cloudy
12:49 AM23 °C20 °C83 %1009.1 hPa16.1 kmENE (70°)25.9 km/hScattered Clouds
12:51 AM23 °C19 °C78 %1008.8 hPa16.1 kmEast (80°)22.2 km/hMostly Cloudy
12:55 AM21.5 °C17.9 °C80 %1008.8 hPa16.1 kmENE (70°)24.1 km/hMostly Cloudy
1:02 AM25 °C22 °C83 %1008.8 hPa16.1 kmENE (70°)20.4 km/hScattered Clouds
1:03 AM25 °C22 °C83 %1008.8 hPa16.1 kmENE (70°)18.5 km/hMostly Cloudy
1:08 AM25 °C22 °C83 %1008.8 hPa16.1 kmENE (70°)24.1 km/hScattered Clouds
1:11 AM25 °C21 °C78 %1008.8 hPa16.1 kmENE (70°)22.2 km/hMostly Cloudy
1:13 AM25 °C21 °C78 %1008.8 hPa16.1 kmENE (70°)24.1 km/hScattered Clouds
1:55 AM21.1 °C17.3 °C79 %1008.8 hPa16.1 kmEast (80°)16.7 km/hClear
2:55 AM20.3 °C17.1 °C82 %1007.8 hPa16.1 kmEast (80°)11.1 km/hClear
3:55 AM20.7 °C18.1 °C85 %1007.8 hPa16.1 kmCalmClear
4:39 AM21 °C18 °C83 %1007.8 hPa16.1 kmENE (70°)11.1 km/hMostly Cloudy
4:49 AM20 °C18 °C88 %1007.8 hPa16.1 kmENE (70°)13 km/hScattered Clouds
4:55 AM20.5 °C18 °C86 %1008.1 hPa16.1 kmENE (70°)11.1 km/hScattered Clouds
4:58 AM21 °C19 °C88 %1007.8 hPa16.1 kmENE (70°)11.1 km/hMostly Cloudy
5:01 AM21 °C19 °C88 %1008.1 hPa16.1 kmENE (60°)13 km/hRainLight Rain
5:30 AM21 °C20 °C94 %1008.1 hPa16.1 kmENE (60°)18.5 km/hOvercast
5:33 AM21 °C20 °C94 %1008.5 hPa16.1 kmENE (60°)16.7 km/hOvercast
5:34 AM21 °C20 °C94 %1008.5 hPa16.1 kmNE (50°)16.7 km/hOvercast
5:39 AM21 °C20 °C94 %1008.1 hPa16.1 kmNE (50°)16.7 km/hOvercast
5:43 AM21 °C20 °C94 %1008.1 hPa16.1 kmENE (60°)18.5 km/hOvercast
5:46 AM21 °C20 °C94 %1008.1 hPa16.1 kmENE (60°)16.7 km/hOvercast
5:47 AM21 °C20 °C94 %1008.1 hPa16.1 kmENE (60°)14.8 km/hOvercast
5:50 AM21 °C20 °C94 %1008.1 hPa16.1 kmENE (60°)16.7 km/hOvercast
5:53 AM21 °C20 °C94 %1008.1 hPa16.1 kmENE (70°)14.8 km/hOvercast
5:54 AM21 °C20 °C94 %1008.1 hPa16.1 kmENE (70°)14.8 km/hOvercast
5:55 AM20.8 °C19.5 °C92 %1008.1 hPa16.1 kmENE (70°)14.8 km/h0.25 mmOvercast
6:02 AM20 °C19 °C94 %1008.5 hPa12.9 kmENE (70°)29.6 km/h37 km/hMostly Cloudy
6:03 AM20 °C19 °C94 %1008.5 hPa11.3 kmENE (70°)29.6 km/h37 km/hRainLight Rain
6:06 AM20 °C19 °C94 %1008.5 hPa6.4 kmEast (80°)29.6 km/h37 km/hRainRain
6:11 AM20 °C19 °C94 %1008.5 hPa4.8 kmENE (70°)27.8 km/hRainLight Rain
6:17 AM20 °C19 °C94 %1008.5 hPa9.7 kmENE (70°)22.2 km/hOvercast
6:21 AM20 °C19 °C94 %1008.5 hPa12.9 kmENE (60°)24.1 km/hOvercast
6:31 AM20 °C19 °C94 %1008.5 hPa16.1 kmENE (70°)16.7 km/hMostly Cloudy
6:37 AM20 °C19 °C94 %1008.8 hPa16.1 kmENE (70°)16.7 km/hMostly Cloudy
6:41 AM20 °C19 °C94 %1008.8 hPa16.1 kmENE (70°)16.7 km/hMostly Cloudy
6:42 AM20 °C19 °C94 %1008.8 hPa16.1 kmENE (70°)16.7 km/hMostly Cloudy
6:44 AM20 °C19 °C94 %1008.8 hPa16.1 kmENE (70°)14.8 km/hMostly Cloudy
6:45 AM21 °C20 °C94 %1008.8 hPa16.1 kmENE (70°)14.8 km/hMostly Cloudy
6:47 AM21 °C20 °C94 %1008.8 hPa16.1 kmENE (70°)16.7 km/hMostly Cloudy
6:55 AM20.6 °C19.3 °C92 %1008.8 hPa16.1 kmEast (80°)18.5 km/h0.25 mmPartly Cloudy
7:55 AM20.8 °C19.1 °C90 %1009.5 hPa16.1 kmEast (90°)16.7 km/h0.25 mmScattered Clouds
7:59 AM21 °C19 °C88 %1009.5 hPa16.1 kmEast (90°)18.5 km/hMostly Cloudy
8:29 AM21 °C19 °C88 %1009.8 hPa16.1 kmEast (100°)29.6 km/h37 km/hOvercast
8:35 AM20 °C19 °C94 %1010.2 hPa6.4 kmEast (80°)31.5 km/h37 km/hLight Drizzle
8:38 AM20 °C19 °C94 %1010.2 hPa4 kmENE (70°)29.6 km/h37 km/hLight Drizzle
8:39 AM20 °C19 °C94 %1010.2 hPa3.2 kmENE (70°)27.8 km/h37 km/hLight Drizzle
8:41 AM20 °C19 °C94 %1010.2 hPa2.9 kmEast (80°)22.2 km/h37 km/hLight Drizzle
8:50 AM20 °C19 °C94 %1010.2 hPa3.2 kmEast (80°)13 km/hLight Drizzle
8:52 AM20 °C19 °C94 %1010.2 hPa4 kmEast (80°)18.5 km/hLight Drizzle
8:53 AM20 °C18 °C88 %1010.2 hPa4.8 kmEast (80°)22.2 km/hLight Drizzle
8:55 AM19.7 °C18.3 °C92 %1010.2 hPa6.4 kmEast (80°)22.2 km/h0.25 mmLight Drizzle
8:59 AM20 °C18 °C88 %1010.2 hPa14.5 kmEast (80°)18.5 km/hOvercast
9:09 AM20 °C19 °C94 %1010.2 hPa16.1 kmENE (70°)13 km/hOvercast
9:36 AM22 °C20 °C88 %1009.8 hPa16.1 kmENE (70°)18.5 km/hOvercast
9:41 AM23 °C22 °C94 %1010.2 hPa8 kmESE (110°)18.5 km/hRainLight Rain
9:42 AM23 °C21 °C88 %1010.2 hPa4 kmESE (110°)20.4 km/hRainLight Rain
9:43 AM22 °C21 °C94 %1010.2 hPa3.2 kmEast (90°)18.5 km/hRainLight Rain
9:44 AM22 °C21 °C94 %1010.2 hPa2.4 kmEast (80°)20.4 km/hRainLight Rain
9:46 AM23 °C22 °C94 %1010.2 hPa1.9 kmEast (80°)16.7 km/hRainHeavy Rain
9:47 AM24 °C23 °C94 %1010.2 hPa1.6 kmEast (80°)14.8 km/hRainHeavy Rain
9:48 AM24 °C23 °C94 %1009.8 hPa1.6 kmEast (80°)14.8 km/hRainHeavy Rain
9:50 AM24 °C23 °C94 %1009.8 hPa1.6 kmEast (80°)16.7 km/hRainLight Rain
9:51 AM24 °C23 °C94 %1009.8 hPa1.9 kmEast (90°)16.7 km/hRainLight Rain
9:52 AM25 °C23 °C89 %1009.8 hPa2.4 kmEast (90°)14.8 km/hRainLight Rain
9:54 AM25 °C23 °C89 %1009.8 hPa4 kmEast (90°)13 km/hRainLight Rain
9:55 AM24.6 °C23.1 °C91 %1009.8 hPa4.8 kmEast (90°)13 km/h1.78 mmRainLight Rain
9:58 AM25 °C23 °C89 %1009.8 hPa12.9 kmEast (100°)14.8 km/hRainLight Rain
10:00 AM25 °C24 °C94 %1009.8 hPa16.1 kmEast (90°)14.8 km/hMostly Cloudy
10:01 AM25 °C24 °C94 %1009.8 hPa16.1 kmEast (90°)16.7 km/hMostly Cloudy
10:03 AM26 °C24 °C89 %1009.8 hPa16.1 kmEast (90°)16.7 km/hMostly Cloudy
10:05 AM26 °C24 °C89 %1009.8 hPa16.1 kmEast (80°)16.7 km/hScattered Clouds
10:08 AM26 °C24 °C89 %1009.8 hPa16.1 kmEast (80°)18.5 km/hMostly Cloudy
10:24 AM26 °C24 °C89 %1009.5 hPa16.1 kmESE (110°)25.9 km/h37 km/hMostly Cloudy
10:33 AM25 °C24 °C94 %1009.5 hPa12.9 kmEast (100°)27.8 km/hOvercast
10:50 AM25 °C24 °C94 %1009.5 hPa16.1 kmESE (110°)20.4 km/h33.3 km/hOvercast
10:51 AM25 °C24 °C94 %1009.5 hPa16.1 kmEast (100°)22.2 km/h33.3 km/hOvercast
10:55 AM25.3 °C23.8 °C91 %1009.5 hPa16.1 kmEast (100°)20.4 km/h0 mmOvercast
11:02 AM26 °C24 °C89 %1009.5 hPa16.1 kmEast (100°)20.4 km/hMostly Cloudy
11:05 AM25 °C23 °C89 %1009.5 hPa16.1 kmEast (100°)20.4 km/hMostly Cloudy
11:08 AM25 °C23 °C89 %1009.5 hPa16.1 kmEast (90°)20.4 km/hOvercast
11:10 AM26 °C24 °C89 %1009.5 hPa16.1 kmEast (90°)20.4 km/hOvercast
11:16 AM26 °C24 °C89 %1009.1 hPa16.1 kmEast (90°)27.8 km/h33.3 km/hOvercast
11:32 AM26 °C24 °C89 %1008.8 hPa16.1 kmEast (100°)22.2 km/hMostly Cloudy
11:39 AM27 °C24 °C84 %1008.5 hPa16.1 kmEast (100°)25.9 km/hMostly Cloudy
11:55 AM24 °C20.6 °C81 %1008.5 hPa16.1 kmEast (100°)24.1 km/hMostly Cloudy
12:09 PM27 °C23 °C79 %1008.5 hPa16.1 kmEast (90°)29.6 km/h42.6 km/hMostly Cloudy
12:38 PM24 °C20 °C78 %1008.5 hPa14.5 kmEast (80°)31.5 km/h38.9 km/hLight Drizzle
12:50 PM23 °C19 °C78 %1008.5 hPa16.1 kmEast (90°)31.5 km/hOvercast
12:55 PM24.2 °C21.1 °C83 %1008.5 hPa16.1 kmEast (100°)33.3 km/h0 mmOvercast
12:56 PM24 °C21 °C83 %1008.5 hPa16.1 kmEast (100°)35.2 km/hMostly Cloudy
1:06 PM22 °C20 °C88 %1008.1 hPa16.1 kmESE (110°)31.5 km/h46.3 km/hMostly Cloudy
1:07 PM22 °C20 °C88 %1008.1 hPa16.1 kmESE (110°)33.3 km/h44.4 km/hMostly Cloudy
1:16 PM22 °C20 °C88 %1008.5 hPa16.1 kmEast (100°)27.8 km/h42.6 km/hOvercast
1:20 PM22 °C19 °C83 %1008.1 hPa16.1 kmESE (110°)25.9 km/h38.9 km/hOvercast
1:55 PM22.5 °C19.1 °C81 %1008.1 hPa16.1 kmEast (90°)24.1 km/hOvercast
1:59 PM23 °C20 °C83 %1008.1 hPa16.1 kmEast (90°)27.8 km/h37 km/hOvercast
2:04 PM23 °C20 °C83 %1008.1 hPa16.1 kmEast (90°)29.6 km/h37 km/hOvercast
2:45 PM28 °C23 °C74 %1007.5 hPa16.1 kmEast (90°)33.3 km/h40.7 km/hMostly Cloudy
2:55 PM28.6 °C24.1 °C76 %1007.1 hPa16.1 kmENE (70°)35.2 km/hMostly Cloudy
2:56 PM28 °C24 °C79 %1007.1 hPa16.1 kmENE (70°)33.3 km/hMostly Cloudy
2:57 PM28 °C25 °C84 %1007.1 hPa16.1 kmENE (70°)31.5 km/h42.6 km/hMostly Cloudy
2:59 PM28 °C25 °C84 %1007.1 hPa16.1 kmEast (80°)31.5 km/h42.6 km/hMostly Cloudy
3:01 PM28 °C25 °C84 %1007.1 hPa16.1 kmENE (70°)31.5 km/h42.6 km/hMostly Cloudy
3:08 PM27 °C25 °C89 %1007.1 hPa16.1 kmENE (70°)29.6 km/hMostly Cloudy
3:12 PM27 °C24 °C84 %1007.1 hPa16.1 kmEast (80°)29.6 km/h40.7 km/hMostly Cloudy
3:19 PM28 °C24 °C79 %1007.1 hPa16.1 kmENE (70°)29.6 km/h40.7 km/hMostly Cloudy
3:55 PM26.8 °C24.2 °C86 %1007.5 hPa16.1 kmEast (90°)24.1 km/hOvercast
4:17 PM27 °C24 °C84 %1007.5 hPa16.1 kmEast (90°)24.1 km/hMostly Cloudy
4:55 PM27 °C22.6 °C77 %1008.1 hPa16.1 kmEast (90°)31.5 km/h38.9 km/hClear
5:51 PM26 °C24 °C89 %1008.5 hPa16.1 kmENE (70°)29.6 km/h38.9 km/hMostly Cloudy
5:55 PM26.3 °C23.9 °C87 %1008.5 hPa16.1 kmENE (70°)25.9 km/hScattered Clouds
5:56 PM26 °C24 °C89 %1008.5 hPa16.1 kmEast (80°)27.8 km/hMostly Cloudy
6:10 PM26 °C24 °C89 %1008.5 hPa16.1 kmENE (70°)25.9 km/hOvercast
6:21 PM26 °C24 °C89 %1008.5 hPa16.1 kmENE (70°)31.5 km/hMostly Cloudy
6:23 PM26 °C23 °C83 %1008.5 hPa16.1 kmEast (80°)27.8 km/hMostly Cloudy
6:25 PM26 °C23 °C83 %1008.5 hPa16.1 kmENE (70°)31.5 km/hMostly Cloudy
6:26 PM26 °C23 °C83 %1008.5 hPa16.1 kmENE (70°)29.6 km/hMostly Cloudy
6:28 PM26 °C23 °C83 %1008.8 hPa16.1 kmEast (80°)24.1 km/hMostly Cloudy
6:32 PM26 °C23 °C83 %1008.5 hPa16.1 kmENE (70°)27.8 km/hMostly Cloudy
6:46 PM26 °C23 °C83 %1008.8 hPa16.1 kmENE (70°)27.8 km/hMostly Cloudy
6:48 PM26 °C23 °C83 %1008.8 hPa16.1 kmENE (70°)29.6 km/hMostly Cloudy
6:55 PM25.9 °C23.5 °C87 %1008.8 hPa14.5 kmEast (100°)29.6 km/h42.6 km/hMostly Cloudy
7:26 PM26 °C23 °C83 %1009.1 hPa16.1 kmEast (80°)29.6 km/hOvercast
7:39 PM26 °C24 °C89 %1009.1 hPa16.1 kmEast (80°)27.8 km/hMostly Cloudy
7:46 PM26 °C24 °C89 %1009.1 hPa16.1 kmEast (90°)27.8 km/hMostly Cloudy
7:49 PM26 °C24 °C89 %1009.1 hPa16.1 kmEast (90°)29.6 km/hMostly Cloudy
7:51 PM26 °C24 °C89 %1009.1 hPa16.1 kmEast (80°)29.6 km/hMostly Cloudy
7:53 PM26 °C24 °C89 %1009.1 hPa16.1 kmENE (70°)27.8 km/hMostly Cloudy
7:55 PM25.9 °C23.9 °C89 %1009.1 hPa16.1 kmENE (70°)31.5 km/hMostly Cloudy
7:56 PM26 °C24 °C89 %1009.5 hPa16.1 kmENE (70°)29.6 km/hMostly Cloudy
8:19 PM26 °C24 °C89 %1009.5 hPa16.1 kmENE (70°)25.9 km/hMostly Cloudy
8:22 PM26 °C24 °C89 %1009.5 hPa16.1 kmEast (80°)20.4 km/hMostly Cloudy
8:25 PM26 °C24 °C89 %1009.5 hPa16.1 kmEast (80°)25.9 km/h35.2 km/hMostly Cloudy
8:32 PM26 °C23 °C83 %1009.5 hPa16.1 kmEast (90°)27.8 km/h37 km/hOvercast
8:42 PM26 °C24 °C89 %1009.5 hPa16.1 kmEast (80°)27.8 km/h40.7 km/hOvercast
8:44 PM26 °C24 °C89 %1009.5 hPa16.1 kmEast (80°)29.6 km/h40.7 km/hMostly Cloudy
8:55 PM25.8 °C22.7 °C83 %1009.8 hPa16.1 kmEast (80°)25.9 km/h40.7 km/hOvercast
8:56 PM26 °C23 °C83 %1009.8 hPa16.1 kmEast (90°)22.2 km/h40.7 km/hOvercast
9:11 PM26 °C23 °C83 %1009.8 hPa16.1 kmEast (90°)22.2 km/hOvercast
9:18 PM26 °C24 °C89 %1009.5 hPa16.1 kmEast (90°)24.1 km/hOvercast
9:20 PM26 °C23 °C83 %1009.8 hPa16.1 kmEast (90°)27.8 km/hOvercast
9:35 PM26 °C23 °C83 %1009.8 hPa16.1 kmEast (90°)27.8 km/hOvercast
9:55 PM26.3 °C23.5 °C84 %1009.8 hPa16.1 kmEast (80°)25.9 km/hMostly Cloudy
10:15 PM24 °C22 °C89 %1009.8 hPa16.1 kmEast (90°)24.1 km/hMostly Cloudy
10:30 PM23 °C21 °C88 %1009.8 hPa16.1 kmEast (90°)25.9 km/h35.2 km/hOvercast
10:32 PM23 °C21 °C88 %1010.2 hPa16.1 kmEast (100°)22.2 km/h35.2 km/hMostly Cloudy
10:55 PM21.7 °C19.2 °C86 %1010.2 hPa16.1 kmEast (90°)22.2 km/hMostly Cloudy
11:55 PM22.9 °C19.6 °C82 %1010.2 hPa16.1 kmEast (90°)20.4 km/hPartly Cloudy
Hourly data recorded from PGUA, located 0 kilometers away from Merizo, Guam







STORIES FROM OUR PARTNERS